Location: Ecklingerode
(51.5036°N, 10.3122°E)
Time: 14:50:26
(UTC+00:00)

Cosmos 2184 Rocket - Pass Details

Date: 29 October 2020
Orbit: 960 x 1001 km, 82.9° (Epoch: 28 November)

Event Time Altitude Azimuth Distance (km) Brightness Sun altitude
Rises 18:32:04 0° 351° (N) 3,704 7.3 -24.6°
Reaches altitude 10° 18:34:39 10° 356° (N) 2,758 6.5 -25.0°
Enters shadow 18:40:26 54° 59° (ENE) 1,201 4.1 -25.9°
